�������l�o���
Date,Time,MP-1(��Sv/h),MP-2(��Sv/h),MP-3(��Sv/h),MP-4(��Sv/h),MP-5(��Sv/h),MP-6(��Sv/h),MP-7(��Sv/h),����,����(m/s),���J
2019/09/14,00:00,0.186,0.165,0.280,0.263,0.266,0.142,0.088,��,2.5,��
2019/09/14,00:10,0.186,0.164,0.281,0.265,0.263,0.142,0.087,��,2.7,��
2019/09/14,00:20,0.185,0.165,0.280,0.263,0.267,0.142,0.088,��,2.3,��
2019/09/14,00:30,0.187,0.164,0.281,0.265,0.264,0.142,0.088,��,2.1,��
2019/09/14,00:40,0.187,0.165,0.280,0.263,0.265,0.142,0.088,��,1.6,��
2019/09/14,00:50,0.186,0.165,0.281,0.265,0.263,0.142,0.087,��,1.5,��
2019/09/14,01:00,0.185,0.165,0.279,0.264,0.266,0.142,0.087,��,1.4,��
2019/09/14,01:10,0.186,0.164,0.281,0.264,0.262,0.141,0.088,��,1.8,��
2019/09/14,01:20,0.185,0.164,0.280,0.265,0.266,0.142,0.087,��,1.3,��
2019/09/14,01:30,0.187,0.165,0.281,0.264,0.262,0.142,0.087,��쐼,1.2,��
2019/09/14,01:40,0.185,0.163,0.279,0.264,0.266,0.143,0.088,��,1.2,��
2019/09/14,01:50,0.186,0.165,0.281,0.264,0.263,0.142,0.088,��,1.6,��
2019/09/14,02:00,0.185,0.163,0.281,0.266,0.265,0.142,0.087,��쓌,0.8,��
2019/09/14,02:10,0.188,0.165,0.282,0.263,0.262,0.141,0.088,��쓌,1.0,��
2019/09/14,02:20,0.186,0.164,0.281,0.265,0.267,0.141,0.087,��,0.9,��
2019/09/14,02:30,0.186,0.164,0.281,0.263,0.263,0.142,0.087,��,0.9,��
2019/09/14,02:40,0.186,0.164,0.280,0.265,0.266,0.142,0.088,��,1.7,��
2019/09/14,02:50,0.187,0.164,0.279,0.263,0.262,0.142,0.087,��,1.8,��
2019/09/14,03:00,0.186,0.164,0.281,0.264,0.266,0.142,0.088,��쓌,1.6,��
2019/09/14,03:10,0.186,0.164,0.280,0.263,0.263,0.141,0.087,��,1.6,��
2019/09/14,03:20,0.185,0.163,0.281,0.265,0.265,0.141,0.088,��,1.3,��
2019/09/14,03:30,0.186,0.164,0.280,0.263,0.264,0.141,0.087,��쐼,1.5,��
2019/09/14,03:40,0.185,0.164,0.282,0.266,0.264,0.142,0.086,��쐼,1.5,��
2019/09/14,03:50,0.186,0.164,0.280,0.264,0.263,0.142,0.087,��쐼,1.5,��
2019/09/14,04:00,0.186,0.163,0.281,0.265,0.265,0.142,0.088,��쐼,1.0,��
2019/09/14,04:10,0.186,0.164,0.279,0.263,0.263,0.143,0.087,��쐼,1.9,��
2019/09/14,04:20,0.185,0.165,0.281,0.264,0.265,0.142,0.088,��쐼,1.2,��
2019/09/14,04:30,0.185,0.165,0.279,0.263,0.265,0.141,0.087,��쐼,1.5,��
2019/09/14,04:40,0.185,0.163,0.281,0.264,0.263,0.142,0.087,��,1.9,��
2019/09/14,04:50,0.185,0.165,0.280,0.263,0.263,0.141,0.087,��,1.9,��
2019/09/14,05:00,0.186,0.164,0.282,0.264,0.264,0.141,0.088,��,2.1,��
2019/09/14,05:10,0.184,0.165,0.280,0.263,0.265,0.141,0.088,��,2.2,��
2019/09/14,05:20,0.187,0.163,0.281,0.265,0.263,0.142,0.088,��,2.3,��
2019/09/14,05:30,0.185,0.163,0.281,0.263,0.265,0.141,0.087,��,1.8,��
2019/09/14,05:40,0.187,0.164,0.280,0.265,0.263,0.143,0.088,��,1.6,��
2019/09/14,05:50,0.184,0.163,0.281,0.263,0.265,0.141,0.088,��,1.8,��
2019/09/14,06:00,0.185,0.164,0.280,0.265,0.264,0.141,0.088,��,1.6,��
2019/09/14,06:10,0.186,0.163,0.281,0.263,0.264,0.141,0.089,��,1.5,��
2019/09/14,06:20,0.185,0.163,0.279,0.264,0.266,0.142,0.087,��,1.5,��
2019/09/14,06:30,0.187,0.163,0.282,0.264,0.262,0.142,0.088,��쓌,1.4,��
2019/09/14,06:40,0.185,0.164,0.279,0.263,0.265,0.142,0.087,��,1.4,��
2019/09/14,06:50,0.186,0.164,0.281,0.265,0.265,0.142,0.087,��,1.0,��
2019/09/14,07:00,0.186,0.164,0.280,0.263,0.262,0.141,0.088,��,1.0,��
2019/09/14,07:10,0.185,0.164,0.280,0.265,0.265,0.141,0.087,��쐼,1.4,��
2019/09/14,07:20,0.186,0.165,0.282,0.263,0.264,0.142,0.088,��쐼,1.1,��
2019/09/14,07:30,0.184,0.164,0.277,0.264,0.263,0.142,0.087,��쐼,1.2,��
2019/09/14,07:40,0.186,0.163,0.280,0.264,0.265,0.142,0.087,��쐼,1.2,��
2019/09/14,07:50,0.185,0.163,0.280,0.262,0.263,0.142,0.088,��쐼,0.9,��
2019/09/14,08:00,0.184,0.164,0.279,0.265,0.262,0.140,0.087,��쐼,0.6,��
2019/09/14,08:10,0.185,0.163,0.281,0.265,0.266,0.141,0.087,��쐼,1.0,��
2019/09/14,08:20,0.186,0.165,0.280,0.262,0.263,0.141,0.088,��쐼,1.1,��
2019/09/14,08:30,0.186,0.164,0.279,0.262,0.262,0.140,0.087,��쐼,1.1,��
2019/09/14,08:40,0.184,0.163,0.281,0.265,0.261,0.141,0.087,��쐼,1.3,��
2019/09/14,08:50,0.187,0.163,0.279,0.263,0.264,0.142,0.087,��,0.9,��
2019/09/14,09:00,0.187,0.166,0.278,0.262,0.266,0.140,0.087,��쓌,1.2,��
2019/09/14,09:10,0.184,0.164,0.282,0.265,0.263,0.141,0.087,�쓌,2.3,��
2019/09/14,09:20,0.183,0.163,0.280,0.265,0.263,0.142,0.087,�쓌,1.8,��
2019/09/14,09:30,0.183,0.164,0.279,0.264,0.261,0.142,0.088,�쓌,1.9,��
2019/09/14,09:40,0.185,0.163,0.280,0.262,0.262,0.142,0.088,��쓌,1.4,��
2019/09/14,09:50,0.187,0.162,0.282,0.260,0.262,0.142,0.087,��쓌,1.4,��
2019/09/14,10:00,0.186,0.162,0.280,0.262,0.265,0.142,0.087,�쓌,1.3,��
2019/09/14,10:10,0.185,0.162,0.279,0.265,0.265,0.143,0.087,��쓌,1.3,��
2019/09/14,10:20,0.185,0.161,0.278,0.265,0.265,0.142,0.086,�쓌,0.8,��
2019/09/14,10:30,0.184,0.162,0.282,0.262,0.264,0.142,0.087,��쓌,1.4,��
2019/09/14,10:40,0.184,0.166,0.280,0.262,0.263,0.141,0.087,��쓌,0.8,��
2019/09/14,10:50,0.187,0.165,0.278,0.260,0.262,0.142,0.087,���쓌,0.9,��
2019/09/14,11:00,0.187,0.163,0.278,0.263,0.263,0.142,0.086,��쓌,1.0,��
2019/09/14,11:10,0.186,0.163,0.280,0.265,0.262,0.143,0.088,���쓌,1.2,��
2019/09/14,11:20,0.185,0.163,0.282,0.265,0.264,0.143,0.087,-,CALM,��
2019/09/14,11:30,0.185,0.164,0.279,0.262,0.267,0.141,0.087,-,CALM,��
2019/09/14,11:40,0.187,0.165,0.278,0.261,0.266,0.141,0.088,���쓌,0.6,��
2019/09/14,11:50,0.187,0.165,0.281,0.266,0.264,0.142,0.087,��,0.6,��
2019/09/14,12:00,0.185,0.165,0.281,0.265,0.262,0.143,0.087,-,CALM,��
2019/09/14,12:10,0.184,0.163,0.281,0.263,0.262,0.143,0.087,���쓌,0.8,��
2019/09/14,12:20,0.186,0.162,0.277,0.262,0.263,0.142,0.087,-,CALM,��
2019/09/14,12:30,0.187,0.163,0.279,0.262,0.260,0.142,0.087,�k��,0.9,��
2019/09/14,12:40,0.187,0.166,0.281,0.266,0.263,0.141,0.087,��,1.6,��
2019/09/14,12:50,0.185,0.164,0.282,0.265,0.266,0.141,0.086,�쓌,0.8,��
2019/09/14,13:00,0.185,0.164,0.279,0.264,0.265,0.142,0.086,�쓌,1.3,��
2019/09/14,13:10,0.184,0.163,0.280,0.261,0.264,0.142,0.087,��,1.3,��
2019/09/14,13:20,0.184,0.163,0.278,0.262,0.264,0.143,0.087,��,1.1,��
2019/09/14,13:30,0.187,0.163,0.277,0.261,0.264,0.143,0.087,���쓌,1.6,��
2019/09/14,13:40,0.187,0.163,0.281,0.267,0.263,0.141,0.087,�쓌,1.3,��
2019/09/14,13:50,0.186,0.163,0.283,0.266,0.262,0.141,0.087,���쓌,1.3,��
2019/09/14,14:00,0.184,0.165,0.281,0.264,0.263,0.141,0.087,���쓌,1.6,��
2019/09/14,14:10,0.184,0.164,0.278,0.263,0.262,0.142,0.087,�쓌,1.2,��
2019/09/14,14:20,0.188,0.165,0.278,0.261,0.263,0.143,0.087,�쓌,1.6,��
2019/09/14,14:30,0.186,0.164,0.282,0.266,0.262,0.142,0.087,�쓌,2.0,��
2019/09/14,14:40,0.186,0.163,0.283,0.266,0.268,0.142,0.087,�쓌,2.0,��
2019/09/14,14:50,0.185,0.163,0.280,0.263,0.266,0.142,0.087,�쓌,1.9,��
2019/09/14,15:00,0.184,0.165,0.278,0.263,0.265,0.142,0.087,��쓌,2.2,��
2019/09/14,15:10,0.187,0.165,0.280,0.265,0.263,0.142,0.087,��,2.3,��
2019/09/14,15:20,0.187,0.165,0.284,0.266,0.261,0.142,0.086,��쓌,2.5,��
2019/09/14,15:30,0.185,0.164,0.281,0.264,0.266,0.142,0.086,��쓌,1.8,��
2019/09/14,15:40,0.184,0.163,0.279,0.263,0.267,0.142,0.088,�쓌,1.8,��
2019/09/14,15:50,0.187,0.165,0.280,0.264,0.264,0.143,0.087,��쓌,1.7,��
2019/09/14,16:00,0.188,0.164,0.282,0.267,0.263,0.142,0.087,��쓌,2.0,��
2019/09/14,16:10,0.186,0.162,0.281,0.264,0.264,0.141,0.087,��쓌,2.0,��
2019/09/14,16:20,0.185,0.163,0.278,0.263,0.268,0.142,0.087,��쓌,2.5,��
2019/09/14,16:30,0.186,0.166,0.282,0.266,0.264,0.142,0.087,��쓌,1.7,��
2019/09/14,16:40,0.188,0.165,0.282,0.266,0.262,0.142,0.087,��쓌,1.7,��
2019/09/14,16:50,0.186,0.164,0.280,0.266,0.263,0.141,0.087,��쓌,2.6,��
2019/09/14,17:00,0.184,0.164,0.279,0.262,0.267,0.142,0.088,��쓌,3.2,��
2019/09/14,17:10,0.188,0.165,0.283,0.267,0.266,0.141,0.087,��,3.9,��
2019/09/14,17:20,0.187,0.164,0.281,0.265,0.263,0.142,0.087,��,3.6,��
2019/09/14,17:30,0.185,0.164,0.279,0.263,0.266,0.141,0.086,��쓌,2.8,��
2019/09/14,17:40,0.185,0.166,0.283,0.267,0.265,0.143,0.088,��,2.9,��
2019/09/14,17:50,0.187,0.165,0.281,0.266,0.264,0.142,0.087,��,2.3,��
2019/09/14,18:00,0.185,0.164,0.280,0.264,0.266,0.142,0.087,��,3.5,��
2019/09/14,18:10,0.187,0.165,0.282,0.265,0.266,0.142,0.087,��,2.5,��
2019/09/14,18:20,0.188,0.164,0.280,0.266,0.262,0.142,0.088,��,1.8,��
2019/09/14,18:30,0.185,0.165,0.279,0.264,0.265,0.142,0.087,��,2.6,��
2019/09/14,18:40,0.187,0.165,0.282,0.267,0.266,0.143,0.088,��,3.9,��
2019/09/14,18:50,0.187,0.164,0.281,0.266,0.263,0.142,0.087,��,3.3,��
2019/09/14,19:00,0.186,0.165,0.282,0.263,0.268,0.142,0.088,��,3.0,��
2019/09/14,19:10,0.188,0.164,0.281,0.267,0.266,0.143,0.089,��쐼,3.0,��
2019/09/14,19:20,0.186,0.166,0.279,0.265,0.264,0.142,0.087,��쐼,3.3,��
2019/09/14,19:30,0.186,0.164,0.282,0.264,0.266,0.141,0.088,��쐼,4.1,��
2019/09/14,19:40,0.187,0.165,0.281,0.267,0.264,0.143,0.087,��쐼,4.8,��
2019/09/14,19:50,0.185,0.165,0.281,0.265,0.266,0.142,0.088,��,6.2,��
2019/09/14,20:00,0.187,0.164,0.282,0.266,0.267,0.142,0.087,��,4.8,��
2019/09/14,20:10,0.187,0.165,0.280,0.266,0.263,0.143,0.088,��,4.8,��
2019/09/14,20:20,0.185,0.165,0.284,0.264,0.267,0.142,0.088,��,4.0,��
2019/09/14,20:30,0.188,0.165,0.281,0.266,0.264,0.144,0.089,��,4.1,��
2019/09/14,20:40,0.186,0.165,0.281,0.265,0.265,0.142,0.087,��,3.7,��
2019/09/14,20:50,0.187,0.165,0.282,0.266,0.266,0.142,0.088,��,4.3,��
2019/09/14,21:00,0.187,0.164,0.280,0.266,0.264,0.142,0.087,��,5.9,��
2019/09/14,21:10,0.185,0.165,0.284,0.264,0.268,0.142,0.088,��,6.3,��
2019/09/14,21:20,0.188,0.164,0.281,0.267,0.264,0.142,0.088,��,5.6,��
2019/09/14,21:30,0.186,0.165,0.282,0.265,0.265,0.141,0.088,��,5.6,��
2019/09/14,21:40,0.187,0.164,0.282,0.265,0.267,0.142,0.088,��,5.2,��
2019/09/14,21:50,0.185,0.163,0.280,0.265,0.264,0.142,0.088,��,5.6,��
2019/09/14,22:00,0.186,0.165,0.282,0.263,0.265,0.143,0.088,��,6.0,��
2019/09/14,22:10,0.187,0.165,0.279,0.266,0.265,0.142,0.088,��,6.8,��
2019/09/14,22:20,0.186,0.164,0.282,0.264,0.265,0.141,0.088,��,6.6,��
2019/09/14,22:30,0.187,0.164,0.281,0.266,0.265,0.143,0.088,��,6.7,��
2019/09/14,22:40,0.186,0.165,0.281,0.267,0.263,0.142,0.087,��쐼,6.6,��
2019/09/14,22:50,0.187,0.164,0.283,0.264,0.266,0.142,0.088,��쐼,6.3,��
2019/09/14,23:00,0.186,0.165,0.280,0.266,0.263,0.143,0.087,��쐼,6.2,��
2019/09/14,23:10,0.186,0.164,0.282,0.264,0.267,0.141,0.087,��쐼,7.3,��
2019/09/14,23:20,0.187,0.165,0.282,0.265,0.265,0.143,0.088,��쐼,7.3,��
2019/09/14,23:30,0.185,0.164,0.281,0.266,0.263,0.142,0.087,��쐼,7.0,��
2019/09/14,23:40,0.187,0.165,0.282,0.263,0.266,0.142,0.088,��쐼,6.6,��
2019/09/14,23:50,0.185,0.164,0.280,0.267,0.262,0.142,0.087,��쐼,6.4,��
